QPF
0.02 0.05 0.09 0.07 0.04 0.05 0.09 0.09 0.09 0.10 0.12 0.12 0.11 0.09 0.09 0.08 0.08 0.09 0.10 0.13 0.13 0.14 0.11 0.09 0.08 0.09 0.12 0.15 0.12 0.13 0.12 0.14 0.13 0.07 0.05 0.06 0.06 0.08 0.09 0.08 0.08 0.06 0.06
0.02 0.05 0.08 0.06 0.03 0.05 0.08 0.07 0.08 0.09 0.10 0.08 0.08 0.09 0.09 0.07 0.07 0.08 0.11 0.12 0.13 0.14 0.12 0.11 0.11 0.12 0.10 0.10 0.10 0.09 0.06 0.09 0.08 0.07 0.07 0.07 0.07 0.10 0.10 0.08 0.08 0.08 0.07
0.02 0.04 0.05 0.04 0.03 0.04 0.04 0.04 0.07 0.08 0.07 0.05 0.05 0.07 0.07 0.07 0.08 0.08 0.07 0.08 0.09 0.09 0.10 0.11 0.13 0.17 0.12 0.10 0.09 0.06 0.05 0.06 0.06 0.07 0.08 0.07 0.06 0.08 0.08 0.08 0.10 0.07 0.06
0.02 0.04 0.04 0.04 0.04 0.04 0.03 0.03 0.05 0.06 0.07 0.05 0.05 0.05 0.05 0.07 0.09 0.07 0.06 0.06 0.07 0.07 0.07 0.09 0.13 0.19 0.17 0.12 0.10 0.08 0.08 0.08 0.06 0.07 0.07 0.07 0.05 0.07 0.06 0.07 0.11 0.09 0.06
0.03 0.07 0.06 0.04 0.04 0.04 0.03 0.02 0.03 0.06 0.06 0.05 0.05 0.05 0.05 0.07 0.07 0.07 0.06 0.07 0.06 0.06 0.08 0.10 0.12 0.18 0.16 0.10 0.09 0.07 0.07 0.07 0.04 0.04 0.05 0.06 0.06 0.08 0.08 0.09 0.11 0.07 0.06
0.03 0.05 0.05 0.04 0.04 0.04 0.03 0.02 0.04 0.06 0.06 0.05 0.04 0.03 0.03 0.04 0.04 0.04 0.05 0.06 0.05 0.06 0.07 0.10 0.14 0.20 0.22 0.14 0.11 0.08 0.07 0.07 0.03 0.03 0.03 0.05 0.08 0.08 0.09 0.11 0.07 0.05 0.06
0.02 0.02 0.03 0.04 0.03 0.03 0.03 0.02 0.02 0.03 0.04 0.04 0.04 0.03 0.03 0.04 0.04 0.04 0.04 0.04 0.06 0.08 0.07 0.11 0.16 0.24 0.22 0.15 0.14 0.14 0.08 0.06 0.03 0.02 0.03 0.07 0.08 0.07 0.08 0.07 0.05 0.05 0.05
0.01 0.02 0.03 0.03 0.03 0.03 0.02 0.03 0.02 0.02 0.02 0.03 0.03 0.03 0.03 0.04 0.04 0.03 0.03 0.04 0.07 0.06 0.08 0.16 0.19 0.14 0.11 0.13 0.15 0.14 0.06 0.03 0.02 0.02 0.03 0.05 0.04 0.07 0.06 0.06 0.06 0.07 0.06
0.01 0.02 0.03 0.03 0.03 0.03 0.02 0.03 0.03 0.02 0.02 0.02 0.02 0.02 0.02 0.02 0.02 0.02 0.02 0.03 0.05 0.12 0.18 0.24 0.17 0.12 0.14 0.15 0.14 0.11 0.08 0.05 0.01 0.01 0.01 0.04 0.06 0.08 0.06 0.06 0.06 0.06 0.05
0.01 0.02 0.02 0.03 0.04 0.04 0.03 0.03 0.03 0.02 0.02 0.02 0.02 0.02 0.01 0.01 0.01 0.01 0.02 0.02 0.04 0.06 0.15 0.23 0.18 0.16 0.16 0.15 0.13 0.14 0.14 0.08 0.03 0.02 0.02 0.03 0.04 0.06 0.06 0.06 0.06 0.05 0.04
0.01 0.02 0.01 0.01 0.02 0.02 0.02 0.02 0.02 0.02 0.02 0.02 0.02 0.01 0.01 0.02 0.02 0.02 0.01 0.02 0.04 0.05 0.06 0.10 0.13 0.18 0.14 0.12 0.12 0.13 0.11 0.05 0.03 0.03 0.04 0.03 0.04 0.05 0.06 0.06 0.06 0.06 0.05
0.01 0.01 0.01 0.01 0.00 0.01 0.01 0.02 0.03 0.02 0.02 0.02 0.02 0.01 0.01 0.02 0.02 0.01 0.01 0.02 0.03 0.04 0.04 0.05 0.07 0.09 0.09 0.11 0.11 0.09 0.08 0.04 0.03 0.04 0.06 0.05 0.05 0.05 0.07 0.07 0.07 0.08 0.09
0.00 0.00 0.01 0.01 0.01 0.01 0.01 0.01 0.02 0.02 0.02 0.01 0.01 0.01 0.01 0.00 0.00 0.01 0.02 0.03 0.03 0.03 0.03 0.03 0.04 0.04 0.05 0.06 0.06 0.04 0.04 0.03 0.03 0.04 0.04 0.04 0.05 0.05 0.06 0.07 0.06 0.08 0.13
0.00 0.00 0.01 0.01 0.01 0.01 0.01 0.01 0.01 0.01 0.01 0.01 0.01 0.01 0.01 0.00 0.00 0.01 0.02 0.02 0.02 0.03 0.07 0.05 0.05 0.03 0.01 0.02 0.03 0.04 0.03 0.02 0.02 0.04 0.04 0.04 0.03 0.04 0.06 0.07 0.06 0.11 0.12
0.00 0.00 0.00 0.01 0.01 0.01 0.01 0.01 0.01 0.01 0.01 0.00 0.01 0.01 0.00 0.00 0.01 0.01 0.01 0.02 0.02 0.02 0.05 0.06 0.05 0.03 0.03 0.03 0.03 0.04 0.03 0.02 0.01 0.02 0.03 0.03 0.02 0.03 0.05 0.07 0.08 0.13 0.08
0.01 0.00 0.00 0.00 0.00 0.01 0.01 0.01 0.01 0.01 0.01 0.00 0.00 0.00 0.01 0.01 0.01 0.01 0.02 0.03 0.02 0.03 0.04 0.05 0.04 0.03 0.03 0.04 0.05 0.04 0.03 0.03 0.02 0.02 0.02 0.03 0.03 0.04 0.07 0.14 0.15 0.12 0.07
0.02 0.01 0.00 0.00 0.00 0.01 0.01 0.01 0.01 0.01 0.01 0.01 0.01 0.01 0.01 0.02 0.02 0.02 0.02 0.03 0.03 0.04 0.06 0.05 0.04 0.03 0.03 0.04 0.06 0.05 0.05 0.03 0.03 0.03 0.02 0.03 0.05 0.05 0.07 0.08 0.09 0.08 0.07
0.02 0.02 0.02 0.01 0.01 0.01 0.01 0.01 0.01 0.01 0.01 0.01 0.01 0.01 0.02 0.03 0.03 0.03 0.03 0.04 0.05 0.05 0.05 0.06 0.06 0.05 0.07 0.07 0.07 0.06 0.05 0.05 0.03 0.04 0.03 0.03 0.06 0.05 0.05 0.05 0.05 0.04 0.04
0.02 0.02 0.03 0.02 0.01 0.01 0.01 0.01 0.02 0.01 0.01 0.01 0.01 0.01 0.02 0.03 0.02 0.03 0.03 0.05 0.05 0.06 0.06 0.06 0.07 0.08 0.08 0.07 0.05 0.06 0.04 0.05 0.05 0.04 0.04 0.03 0.04 0.05 0.05 0.03 0.03 0.04 0.03
0.01 0.01 0.02 0.01 0.02 0.02 0.02 0.01 0.02 0.02 0.02 0.02 0.01 0.01 0.02 0.03 0.03 0.03 0.03 0.04 0.03 0.06 0.09 0.08 0.08 0.08 0.06 0.06 0.02 0.03 0.05 0.04 0.03 0.03 0.02 0.02 0.03 0.03 0.03 0.03 0.04 0.03 0.03
0.01 0.01 0.02 0.01 0.02 0.02 0.03 0.04 0.04 0.05 0.06 0.06 0.03 0.01 0.03 0.04 0.05 0.05 0.03 0.05 0.04 0.06 0.10 0.08 0.07 0.07 0.05 0.04 0.05 0.05 0.04 0.03 0.03 0.03 0.02 0.01 0.01 0.02 0.03 0.04 0.04 0.03 0.02
0.01 0.01 0.02 0.02 0.03 0.05 0.07 0.09 0.08 0.08 0.08 0.08 0.07 0.04 0.04 0.05 0.05 0.05 0.05 0.05 0.04 0.06 0.10 0.09 0.08 0.08 0.06 0.04 0.06 0.08 0.07 0.07 0.05 0.02 0.03 0.03 0.02 0.03 0.03 0.03 0.05 0.05 0.03
0.00 0.01 0.02 0.02 0.03 0.04 0.06 0.11 0.13 0.09 0.05 0.04 0.06 0.05 0.04 0.05 0.04 0.05 0.06 0.05 0.04 0.03 0.06 0.07 0.06 0.06 0.08 0.05 0.04 0.08 0.10 0.10 0.09 0.04 0.03 0.02 0.03 0.04 0.02 0.03 0.03 0.03 0.04
0.00 0.00 0.01 0.02 0.03 0.03 0.05 0.08 0.11 0.09 0.05 0.04 0.04 0.05 0.05 0.04 0.03 0.04 0.07 0.06 0.05 0.04 0.06 0.05 0.03 0.04 0.07 0.07 0.06 0.04 0.06 0.09 0.12 0.07 0.04 0.02 0.03 0.03 0.02 0.03 0.03 0.03 0.03
0.00 0.01 0.02 0.03 0.04 0.04 0.04 0.05 0.06 0.05 0.07 0.06 0.05 0.05 0.05 0.03 0.03 0.03 0.04 0.05 0.05 0.05 0.06 0.06 0.06 0.06 0.05 0.07 0.07 0.05 0.05 0.06 0.09 0.09 0.07 0.06 0.05 0.03 0.02 0.03 0.04 0.02 0.02
0.00 0.01 0.02 0.03 0.03 0.03 0.03 0.04 0.05 0.07 0.09 0.10 0.09 0.07 0.05 0.04 0.03 0.03 0.03 0.05 0.05 0.04 0.06 0.06 0.07 0.07 0.06 0.06 0.06 0.05 0.07 0.08 0.08 0.09 0.07 0.07 0.07 0.05 0.03 0.03 0.03 0.03 0.03
MSLP
1010.95 1011.00 1011.18 1011.48 1011.83 1012.17 1012.45 1012.63 1012.69 1012.66 1012.58 1012.49 1012.46 1012.50 1012.61 1012.78 1012.98 1013.17 1013.33 1013.46 1013.56 1013.65 1013.75 1013.89 1014.07 1014.28 1014.49 1014.69 1014.85 1014.98 1015.07 1015.15 1015.24 1015.37 1015.56 1015.80 1016.09 1016.41 1016.72 1017.02 1017.28 1017.50 1017.69
1011.00 1011.15 1011.44 1011.82 1012.23 1012.61 1012.90 1013.05 1013.08 1013.01 1012.90 1012.81 1012.79 1012.86 1013.01 1013.21 1013.42 1013.62 1013.75 1013.84 1013.90 1013.96 1014.05 1014.20 1014.40 1014.64 1014.88 1015.10 1015.27 1015.37 1015.42 1015.46 1015.50 1015.61 1015.78 1016.04 1016.36 1016.71 1017.06 1017.37 1017.64 1017.86 1018.04
1011.02 1011.26 1011.63 1012.09 1012.57 1012.99 1013.30 1013.47 1013.50 1013.42 1013.31 1013.22 1013.21 1013.30 1013.46 1013.66 1013.87 1014.02 1014.12 1014.16 1014.18 1014.21 1014.30 1014.46 1014.69 1014.96 1015.24 1015.48 1015.64 1015.72 1015.74 1015.73 1015.74 1015.82 1015.99 1016.25 1016.58 1016.96 1017.33 1017.67 1017.94 1018.16 1018.33
1011.01 1011.32 1011.76 1012.29 1012.83 1013.32 1013.68 1013.88 1013.93 1013.88 1013.78 1013.71 1013.72 1013.80 1013.96 1014.14 1014.30 1014.42 1014.46 1014.45 1014.43 1014.45 1014.54 1014.72 1014.98 1015.29 1015.59 1015.83 1015.99 1016.04 1016.02 1015.98 1015.95 1016.01 1016.17 1016.44 1016.79 1017.19 1017.58 1017.92 1018.21 1018.42 1018.59
1010.99 1011.35 1011.84 1012.43 1013.04 1013.59 1014.01 1014.26 1014.36 1014.35 1014.28 1014.23 1014.24 1014.32 1014.45 1014.60 1014.73 1014.79 1014.79 1014.75 1014.71 1014.72 1014.82 1015.02 1015.31 1015.63 1015.94 1016.18 1016.31 1016.33 1016.28 1016.19 1016.15 1016.20 1016.36 1016.65 1017.01 1017.43 1017.83 1018.18 1018.47 1018.68 1018.85
1011.00 1011.37 1011.89 1012.53 1013.19 1013.79 1014.27 1014.59 1014.74 1014.77 1014.74 1014.71 1014.72 1014.79 1014.90 1015.02 1015.11 1015.14 1015.12 1015.06 1015.03 1015.05 1015.17 1015.39 1015.69 1016.02 1016.31 1016.52 1016.61 1016.59 1016.50 1016.39 1016.34 1016.39 1016.57 1016.88 1017.27 1017.70 1018.11 1018.47 1018.75 1018.96 1019.13
1011.05 1011.41 1011.94 1012.60 1013.29 1013.93 1014.46 1014.82 1015.02 1015.08 1015.08 1015.06 1015.08 1015.14 1015.23 1015.33 1015.41 1015.44 1015.42 1015.39 1015.38 1015.43 1015.58 1015.82 1016.11 1016.43 1016.69 1016.85 1016.89 1016.83 1016.71 1016.59 1016.54 1016.61 1016.83 1017.17 1017.59 1018.03 1018.45 1018.80 1019.07 1019.27 1019.43
1011.16 1011.50 1012.01 1012.66 1013.35 1014.01 1014.55 1014.93 1015.15 1015.25 1015.26 1015.25 1015.27 1015.33 1015.43 1015.54 1015.63 1015.68 1015.70 1015.71 1015.74 1015.84 1016.01 1016.26 1016.54 1016.82 1017.03 1017.14 1017.14 1017.04 1016.90 1016.79 1016.76 1016.87 1017.13 1017.50 1017.95 1018.41 1018.83 1019.17 1019.41 1019.59 1019.73
1011.33 1011.64 1012.11 1012.72 1013.38 1014.02 1014.55 1014.93 1015.15 1015.25 1015.28 1015.28 1015.31 1015.38 1015.49 1015.62 1015.75 1015.85 1015.92 1015.99 1016.08 1016.22 1016.41 1016.66 1016.92 1017.16 1017.32 1017.37 1017.33 1017.21 1017.07 1016.97 1016.99 1017.15 1017.45 1017.87 1018.35 1018.82 1019.23 1019.54 1019.75 1019.89 1020.00
1011.56 1011.82 1012.24 1012.80 1013.41 1013.99 1014.49 1014.84 1015.05 1015.14 1015.17 1015.18 1015.23 1015.32 1015.46 1015.63 1015.80 1015.95 1016.09 1016.21 1016.35 1016.52 1016.73 1016.96 1017.19 1017.38 1017.50 1017.52 1017.44 1017.32 1017.20 1017.14 1017.21 1017.43 1017.79 1018.24 1018.74 1019.22 1019.61 1019.89 1020.06 1020.15 1020.22
1011.81 1012.04 1012.41 1012.90 1013.44 1013.96 1014.39 1014.70 1014.89 1014.97 1015.00 1015.03 1015.09 1015.22 1015.40 1015.60 1015.82 1016.02 1016.21 1016.37 1016.54 1016.72 1016.92 1017.14 1017.33 1017.48 1017.56 1017.56 1017.48 1017.37 1017.29 1017.29 1017.41 1017.68 1018.08 1018.57 1019.08 1019.55 1019.92 1020.17 1020.30 1020.36 1020.38
1012.06 1012.27 1012.60 1013.02 1013.49 1013.94 1014.31 1014.57 1014.72 1014.79 1014.83 1014.88 1014.98 1015.14 1015.35 1015.60 1015.85 1016.08 1016.29 1016.47 1016.64 1016.82 1017.00 1017.18 1017.34 1017.46 1017.52 1017.51 1017.44 1017.37 1017.33 1017.38 1017.56 1017.87 1018.31 1018.81 1019.32 1019.77 1020.13 1020.35 1020.46 1020.49 1020.49
1012.29 1012.49 1012.79 1013.16 1013.57 1013.94 1014.25 1014.47 1014.59 1014.66 1014.71 1014.79 1014.92 1015.11 1015.36 1015.63 1015.90 1016.15 1016.36 1016.53 1016.68 1016.82 1016.97 1017.11 1017.24 1017.34 1017.39 1017.39 1017.36 1017.33 1017.34 1017.44 1017.65 1017.99 1018.43 1018.94 1019.43 1019.87 1020.21 1020.43 1020.53 1020.56 1020.55
1012.46 1012.68 1012.97 1013.31 1013.66 1013.97 1014.23 1014.41 1014.52 1014.59 1014.66 1014.76 1014.92 1015.15 1015.42 1015.71 1015.98 1016.22 1016.41 1016.56 1016.68 1016.78 1016.89 1016.99 1017.10 1017.18 1017.24 1017.27 1017.27 1017.28 1017.33 1017.46 1017.69 1018.03 1018.46 1018.94 1019.42 1019.84 1020.17 1020.40 1020.52 1020.57 1020.59
1012.57 1012.82 1013.11 1013.43 1013.74 1014.02 1014.23 1014.39 1014.49 1014.56 1014.65 1014.78 1014.97 1015.22 1015.50 1015.80 1016.07 1016.29 1016.46 1016.57 1016.66 1016.73 1016.80 1016.88 1016.97 1017.05 1017.12 1017.17 1017.21 1017.25 1017.33 1017.46 1017.69 1018.00 1018.40 1018.84 1019.28 1019.69 1020.02 1020.27 1020.43 1020.53 1020.60
1012.59 1012.88 1013.19 1013.50 1013.80 1014.05 1014.24 1014.38 1014.47 1014.56 1014.66 1014.81 1015.02 1015.28 1015.56 1015.86 1016.12 1016.33 1016.48 1016.58 1016.64 1016.69 1016.75 1016.82 1016.91 1017.00 1017.09 1017.16 1017.22 1017.27 1017.35 1017.47 1017.66 1017.93 1018.26 1018.65 1019.05 1019.44 1019.78 1020.06 1020.27 1020.43 1020.56
1012.51 1012.85 1013.19 1013.51 1013.80 1014.04 1014.23 1014.36 1014.45 1014.54 1014.65 1014.81 1015.02 1015.27 1015.56 1015.85 1016.10 1016.31 1016.46 1016.57 1016.63 1016.69 1016.75 1016.83 1016.93 1017.04 1017.15 1017.23 1017.30 1017.35 1017.41 1017.50 1017.63 1017.83 1018.09 1018.41 1018.76 1019.12 1019.46 1019.77 1020.03 1020.25 1020.45
1012.33 1012.72 1013.09 1013.44 1013.74 1013.99 1014.18 1014.31 1014.41 1014.50 1014.60 1014.75 1014.95 1015.19 1015.46 1015.74 1016.00 1016.22 1016.40 1016.53 1016.63 1016.72 1016.81 1016.92 1017.05 1017.17 1017.29 1017.38 1017.45 1017.49 1017.52 1017.55 1017.62 1017.74 1017.92 1018.16 1018.44 1018.76 1019.09 1019.41 1019.71 1019.98 1020.23
1012.03 1012.47 1012.89 1013.27 1013.60 1013.88 1014.08 1014.23 1014.34 1014.43 1014.52 1014.65 1014.82 1015.03 1015.28 1015.55 1015.81 1016.06 1016.27 1016.45 1016.61 1016.75 1016.90 1017.05 1017.20 1017.35 1017.47 1017.57 1017.62 1017.64 1017.63 1017.62 1017.62 1017.66 1017.75 1017.91 1018.12 1018.38 1018.68 1018.99 1019.29 1019.59 1019.86
1011.63 1012.12 1012.58 1013.01 1013.39 1013.71 1013.95 1014.13 1014.25 1014.34 1014.42 1014.52 1014.65 1014.83 1015.05 1015.30 1015.56 1015.83 1016.09 1016.33 1016.55 1016.76 1016.96 1017.15 1017.34 1017.50 1017.63 1017.72 1017.77 1017.77 1017.73 1017.67 1017.62 1017.59 1017.61 1017.69 1017.82 1018.01 1018.25 1018.51 1018.80 1019.08 1019.36
1011.14 1011.67 1012.19 1012.67 1013.11 1013.48 1013.78 1014.00 1014.16 1014.26 1014.33 1014.40 1014.49 1014.62 1014.80 1015.02 1015.28 1015.57 1015.86 1016.15 1016.44 1016.70 1016.96 1017.19 1017.40 1017.57 1017.71 1017.80 1017.84 1017.82 1017.77 1017.69 1017.61 1017.53 1017.49 1017.49 1017.54 1017.65 1017.81 1018.00 1018.23 1018.48 1018.73
1010.57 1011.15 1011.71 1012.25 1012.76 1013.20 1013.57 1013.85 1014.05 1014.17 1014.24 1014.29 1014.34 1014.43 1014.56 1014.75 1015.00 1015.29 1015.60 1015.93 1016.26 1016.57 1016.85 1017.11 1017.33 1017.51 1017.65 1017.74 1017.78 1017.78 1017.73 1017.66 1017.57 1017.47 1017.38 1017.32 1017.29 1017.31 1017.38 1017.48 1017.63 1017.82 1018.03
1009.97 1010.58 1011.18 1011.78 1012.34 1012.86 1013.30 1013.65 1013.90 1014.07 1014.15 1014.19 1014.22 1014.26 1014.35 1014.50 1014.72 1015.00 1015.31 1015.66 1016.00 1016.33 1016.63 1016.89 1017.12 1017.30 1017.44 1017.54 1017.60 1017.62 1017.61 1017.56 1017.48 1017.39 1017.28 1017.18 1017.08 1017.01 1016.98 1016.99 1017.05 1017.16 1017.31
1009.39 1010.01 1010.63 1011.26 1011.87 1012.44 1012.95 1013.37 1013.68 1013.89 1014.01 1014.06 1014.07 1014.09 1014.14 1014.26 1014.44 1014.69 1014.99 1015.32 1015.66 1015.99 1016.29 1016.55 1016.77 1016.95 1017.09 1017.21 1017.30 1017.36 1017.40 1017.40 1017.36 1017.29 1017.18 1017.05 1016.91 1016.76 1016.63 1016.55 1016.52 1016.55 1016.65
1008.87 1009.48 1010.09 1010.72 1011.35 1011.95 1012.50 1012.97 1013.34 1013.60 1013.76 1013.83 1013.85 1013.86 1013.89 1013.97 1014.12 1014.34 1014.62 1014.94 1015.26 1015.57 1015.86 1016.10 1016.32 1016.49 1016.65 1016.79 1016.92 1017.03 1017.13 1017.19 1017.21 1017.18 1017.09 1016.95 1016.76 1016.56 1016.35 1016.18 1016.07 1016.03 1016.09
1008.47 1009.03 1009.60 1010.19 1010.79 1011.38 1011.94 1012.44 1012.85 1013.15 1013.35 1013.45 1013.49 1013.51 1013.54 1013.61 1013.75 1013.95 1014.20 1014.49 1014.80 1015.10 1015.37 1015.61 1015.81 1015.99 1016.17 1016.33 1016.50 1016.67 1016.83 1016.96 1017.04 1017.05 1016.99 1016.85 1016.65 1016.40 1016.14 1015.90 1015.72 1015.63 1015.64
Thickness
5793 5790 5783 5783 5783 5783 5782 5781 5780 5780 5779 5778 5777 5776 5776 5775 5774 5773 5772 5771 5769 5768 5767 5765 5764 5763 5762 5760 5759 5757 5756 5754 5753 5752 5751 5749 5748 5747 5745 5745 5745 5744 5740
5795 5790 5783 5782 5782 5781 5780 5779 5778 5778 5777 5777 5776 5775 5774 5773 5772 5771 5770 5769 5768 5766 5765 5763 5762 5761 5760 5758 5757 5756 5754 5753 5752 5751 5750 5748 5746 5745 5744 5744 5744 5742 5739
5795 5789 5783 5781 5780 5779 5778 5777 5776 5775 5775 5774 5773 5773 5772 5771 5770 5769 5768 5767 5766 5765 5763 5762 5761 5759 5758 5757 5755 5754 5753 5752 5751 5751 5751 5751 5746 5744 5742 5741 5740 5739 5737
5795 5790 5784 5779 5778 5777 5776 5775 5774 5773 5772 5771 5771 5770 5769 5769 5768 5767 5766 5765 5764 5763 5761 5760 5759 5757 5756 5755 5753 5752 5751 5750 5750 5752 5753 5751 5747 5742 5741 5739 5738 5737 5735
5794 5789 5781 5777 5776 5775 5774 5773 5772 5771 5770 5769 5768 5768 5767 5766 5766 5765 5764 5763 5762 5761 5760 5758 5757 5755 5754 5753 5751 5750 5750 5749 5750 5752 5751 5749 5745 5741 5740 5738 5737 5736 5734
5794 5789 5780 5776 5774 5773 5772 5771 5770 5769 5768 5767 5766 5765 5765 5764 5763 5763 5762 5761 5760 5759 5758 5756 5755 5753 5752 5751 5750 5749 5748 5749 5751 5752 5750 5748 5744 5739 5738 5737 5736 5734 5733
5795 5789 5781 5775 5773 5771 5770 5769 5768 5767 5766 5764 5764 5763 5763 5762 5761 5760 5760 5758 5758 5757 5756 5754 5753 5752 5751 5749 5748 5747 5747 5748 5752 5750 5747 5745 5741 5738 5737 5735 5734 5733 5731
5795 5789 5780 5774 5771 5770 5768 5767 5766 5765 5763 5762 5762 5761 5760 5760 5759 5758 5757 5756 5755 5755 5754 5752 5751 5750 5749 5747 5746 5745 5745 5747 5749 5749 5746 5743 5738 5736 5735 5734 5733 5731 5729
5794 5789 5783 5777 5772 5769 5767 5765 5764 5763 5761 5760 5760 5759 5759 5758 5757 5756 5755 5754 5753 5753 5752 5750 5750 5748 5747 5746 5745 5743 5744 5746 5750 5748 5746 5741 5735 5734 5733 5732 5731 5729 5727
5792 5788 5784 5779 5775 5772 5768 5764 5762 5761 5760 5759 5758 5758 5757 5756 5755 5754 5753 5752 5751 5750 5750 5749 5748 5747 5746 5745 5743 5742 5743 5745 5748 5746 5743 5738 5734 5733 5731 5730 5729 5727 5725
5787 5786 5784 5780 5776 5775 5772 5765 5763 5761 5759 5758 5758 5757 5758 5759 5758 5755 5752 5750 5749 5749 5748 5747 5746 5746 5745 5744 5742 5742 5743 5747 5747 5746 5741 5735 5733 5731 5730 5728 5727 5725 5723
5783 5783 5783 5780 5778 5776 5772 5767 5766 5764 5761 5761 5759 5759 5759 5757 5757 5755 5749 5748 5748 5747 5747 5746 5745 5746 5747 5747 5744 5743 5746 5746 5746 5743 5738 5733 5731 5730 5728 5727 5725 5723 5721
5785 5783 5782 5779 5777 5776 5772 5769 5767 5765 5761 5760 5758 5757 5757 5756 5756 5755 5753 5750 5748 5748 5749 5747 5748 5750 5749 5748 5747 5747 5746 5746 5745 5743 5736 5732 5730 5729 5727 5725 5724 5722 5720
5786 5784 5783 5779 5775 5773 5772 5770 5767 5766 5763 5761 5757 5757 5757 5757 5756 5755 5753 5752 5751 5750 5748 5749 5748 5748 5747 5747 5747 5746 5745 5746 5744 5741 5735 5731 5729 5728 5726 5725 5723 5721 5719
5785 5783 5781 5778 5774 5771 5769 5769 5768 5766 5764 5761 5757 5756 5755 5756 5755 5753 5751 5750 5752 5750 5748 5747 5747 5746 5746 5746 5746 5745 5744 5743 5743 5741 5736 5731 5729 5727 5726 5724 5723 5721 5719
5787 5784 5782 5777 5774 5770 5768 5767 5766 5765 5761 5761 5758 5755 5754 5755 5753 5751 5750 5749 5750 5749 5748 5747 5747 5746 5747 5745 5745 5744 5744 5743 5741 5740 5738 5732 5729 5727 5726 5724 5722 5720 5718
5789 5786 5782 5778 5774 5770 5768 5766 5766 5764 5762 5760 5757 5753 5752 5752 5750 5750 5750 5749 5749 5747 5745 5745 5745 5746 5746 5745 5744 5744 5743 5742 5741 5739 5738 5736 5732 5729 5726 5724 5723 5721 5719
5792 5787 5782 5780 5775 5770 5767 5764 5765 5764 5761 5759 5756 5753 5751 5750 5749 5749 5750 5749 5747 5747 5746 5745 5746 5745 5744 5744 5743 5744 5743 5741 5741 5739 5738 5736 5734 5733 5728 5725 5723 5722 5720
5793 5788 5783 5780 5776 5772 5768 5764 5763 5760 5759 5758 5756 5754 5751 5749 5749 5749 5749 5748 5747 5747 5746 5747 5745 5744 5742 5742 5743 5743 5744 5743 5741 5741 5739 5737 5735 5733 5732 5727 5725 5723 5721
5795 5790 5785 5780 5776 5772 5768 5764 5762 5760 5758 5757 5756 5753 5751 5749 5748 5748 5749 5747 5747 5747 5745 5744 5742 5742 5742 5742 5745 5744 5744 5744 5743 5742 5740 5739 5737 5736 5735 5733 5728 5726 5723
5796 5791 5786 5781 5776 5772 5768 5765 5761 5759 5759 5757 5756 5753 5750 5749 5748 5747 5749 5747 5746 5747 5745 5744 5743 5741 5742 5742 5741 5740 5743 5745 5744 5742 5742 5742 5741 5739 5736 5734 5732 5731 5728
5797 5792 5788 5783 5779 5774 5771 5767 5764 5762 5760 5758 5757 5753 5751 5749 5748 5748 5747 5748 5747 5746 5744 5744 5742 5742 5742 5743 5740 5736 5734 5738 5741 5745 5743 5742 5742 5741 5739 5737 5734 5731 5731
5801 5796 5793 5787 5782 5777 5773 5768 5764 5760 5758 5757 5755 5754 5752 5750 5749 5748 5748 5748 5747 5747 5746 5744 5743 5741 5739 5742 5742 5738 5732 5729 5734 5742 5742 5743 5742 5741 5741 5740 5737 5735 5732
5806 5801 5796 5790 5784 5779 5774 5770 5765 5761 5759 5758 5757 5756 5754 5751 5750 5749 5748 5747 5747 5748 5747 5745 5746 5744 5741 5740 5742 5741 5740 5737 5731 5731 5739 5743 5742 5740 5742 5742 5740 5737 5735
5810 5805 5798 5791 5785 5781 5776 5772 5766 5763 5762 5761 5759 5756 5754 5753 5751 5751 5749 5749 5748 5748 5747 5746 5746 5744 5744 5743 5742 5741 5740 5738 5737 5731 5730 5736 5740 5743 5744 5742 5741 5739 5737
5811 5807 5801 5793 5787 5783 5778 5774 5768 5764 5761 5758 5756 5755 5754 5755 5754 5752 5751 5750 5749 5748 5748 5746 5745 5745 5744 5744 5743 5743 5740 5737 5736 5734 5732 5732 5734 5740 5743 5742 5742 5740 5738